Location: Beetenbrück
(52.8113°N, 9.5946°E)
Time: 22:07:51
(UTC+00:00)

Cosmos 1656 Rocket - Pass Details

Date: 14 April 2026
Orbit: 794 x 843 km, 71.1° (Epoch: 12 May)

Event Time Altitude Azimuth Distance (km) Brightness Sun altitude
Rises 20:35:50 0° 328° (NNW) 3,314 8.4 -18.2°
Reaches altitude 10° 20:38:15 10° 329° (NNW) 2,384 7.2 -18.5°
Maximum altitude 20:43:43 85° 58° (ENE) 816 3.5 -19.0°
Enters shadow 20:46:01 37° 146° (SE) 1,249 4.0 -19.3°
